Location: Sternwarte ZA, Rosenfeld-Brittheim
(48.2889°N, 8.6789°E)
Time: 06:08:25
(UTC+01:00)

ISS - Pass Details

Date: 20 February 2020
Orbit: 415 x 423 km, 51.6° (Epoch: 27 February)

Event Time Altitude Azimuth Distance (km) Brightness Sun altitude
Rises 06:40:04 0° 195° (SSW) 2,354 0.0 -8.1°
Reaches altitude 10° 06:42:53 10° 169° (S) 1,497 -0.7 -7.6°
Maximum altitude 06:44:44 14° 136° (SE) 1,273 -0.5 -7.3°
Drops below altitude 10° 06:46:36 10° 102° (ESE) 1,505 0.9 -7.0°
Sets 06:49:26 0° 76° (ENE) 2,376 1.5 -6.6°
